Weather Roundup
Issued by NWS

Home | Current Version | Previous Version | Graphics & Text | Print | Product List | Glossary Off
Versions: 1 2 3 4 5 6 7 8 9 10 11 12 13 14 15 16 17 18 19 20 21 22 23 24 25 26 27 28 29 30 31 32 33 34 35 36 37 38 39 40 41 42 43 44 45 46 47 48 49 50

000
NZUS93 KARX 192210
HRRWXR

CURRENT HOURLY OBSERVATIONS ACROSS
MUCH OF THE UPPER MISSISSIPPI VALLEY
NATIONAL WEATHER SERVICE LA CROSSE WI
500 PM CDT THU OCT 19 2017


...SOUTHEAST MINNESOTA...


CITY           SKY/WX    TMP DP  RH WIND       PRES   REMARKS
ROCHESTER      SUNNY     69  38  32 S15       30.03F
ROCHESTER/MAYO FAIR      71  33  25 S13G18    30.03F
WINONA         SUNNY     72  36  26 CALM      30.03F
AUSTIN         SUNNY     68  36  30 S15       30.03F
ALBERT LEA     NOT AVBL
DODGE CENTER   SUNNY     70  32  24 S12       30.02F
PRESTON        SUNNY     68  33  27 S12G17    30.06S
OWATONNA       SUNNY     70  39  32 S17       29.99F
FARIBAULT      SUNNY     72  36  26 S13G21    29.98F
$$

...ELSEWHERE IN MINNESOTA...


CITY           SKY/WX    TMP DP  RH WIND       PRES   REMARKS
MINNEAPOLIS    MOSUNNY   72  35  25 S16       29.95F
INTNL FALLS    CLOUDY    66  34  30 SW6G17    29.81F
DULUTH         CLOUDY    65  33  30 SW12      29.92F
RED WING       SUNNY     73  27  17 S14       29.98F
REDWOOD FALLS  SUNNY     75  41  29 S21G26    29.90F
MANKATO        SUNNY     72  38  29 S14G20    29.96F
WORTHINGTON    SUNNY     74  45  35 S13       29.95F
FAIRMONT       SUNNY     72  42  34 S21       29.97F
$$

...SOUTHWEST WISCONSIN...


CITY           SKY/WX    TMP DP  RH WIND       PRES   REMARKS
LA CROSSE      SUNNY     70  36  28 S14       30.05F
PRAIRIE DU CHI SUNNY     71  31  22 SE6       30.08F
BOSCOBEL       SUNNY     72  33  24 VRB7      30.09F
LONE ROCK      SUNNY     69  38  32 S9        30.10S
PLATTEVILLE    SUNNY     68  36  30 S8        30.12S
FORT MC COY    SUNNY     69  34  27 S8        30.07S
CAMP DOUGLAS   MOSUNNY   70  36  28 S7        30.07S
MAUSTON-NEW LI CLEAR     70  37  30 S7        30.07S
VIROQUA        FAIR      68  37  31 S9        30.09S
WIS DELLS      SUNNY     67  32  27 S10       30.10S
$$

...ELSEWHERE IN WISCONSIN...


CITY           SKY/WX    TMP DP  RH WIND       PRES   REMARKS
MILWAUKEE      PTCLDY    63  31  30 S10       30.14F
MADISON        PTSUNNY   67  34  29 S8        30.12S
GREEN BAY      CLEAR     66  37  34 SW6       30.08S
EAU CLAIRE     SUNNY     70  34  26 S12       30.01F
BLACK RVR FLS  FAIR      72  31  22 S5        30.05S
MEDFORD        SUNNY     65  33  31 S8        30.05S
WAUSAU         SUNNY     66  34  30 S8        30.04F
WIS RAPIDS     SUNNY     69  35  28 S7        30.07F
MARSHFIELD     SUNNY     67  32  27 S9        30.05S
RICE LAKE      SUNNY     69  32  25 S10       30.00F
$$

...NORTHEAST IOWA...


CITY           SKY/WX    TMP DP  RH WIND       PRES   REMARKS
WATERLOO       SUNNY     70  38  31 SE12      30.05F
DUBUQUE        CLOUDY    69  32  25 S13       30.12S
DECORAH        SUNNY     70  34  26 S10       30.06F
MASON CITY     SUNNY     70  39  32 S10G20    30.04F
CHARLES CITY   SUNNY     70  34  26 S12       30.06F
OELWEIN        SUNNY     72  36  26 SE14      30.08S
$$

...ELSEWHERE IN IOWA...


CITY           SKY/WX    TMP DP  RH WIND       PRES   REMARKS
DES MOINES     MOSUNNY   76  54  46 SE14      30.02F
IOWA CITY      CLOUDY    75  51  43 SE14      30.09F
FORT DODGE     SUNNY     73  47  39 S12       30.01F
MARSHALLTOWN   SUNNY     74  49  41 S13       30.03F
CEDAR RAPIDS   MOSUNNY   72  44  36 SE12      30.07F
$$

...NORTHERN ILLINOIS...


CITY           SKY/WX    TMP DP  RH WIND       PRES   REMARKS
CHICAGO-OHARE  CLOUDY    64  26  23 E9        30.16S
CHICAGO-MIDWAY PTSUNNY   65  24  21 E8        30.17S
MOLINE         SUNNY     74  50  42 S7        30.09F
ROCKFORD       PTSUNNY   70  32  24 SE7       30.15S
PEORIA         SUNNY     75  53  46 SE3       30.12F
$$

NOTE: "FAIR" INDICATES FEW OR NO CLOUDS BELOW 12,000 FEET WITH NO
SIGNIFICANT WEATHER AND/OR OBSTRUCTIONS TO VISIBILITY. WIND
SPEEDS ARE IN MILES-PER-HOUR.




USA.gov is the U.S. government's official web portal to all federal, state and local government web resources and services.